{"data":{"norad_id":62504,"intl_designator":"2025-003T","name":"STARLINK-32792","alt_names":[],"object_type":"PAYLOAD","status":"ACTIVE","operator":null,"country":"US","launch_date":"2025-01-06","launch_site_code":"AFETR","launch_vehicle":null,"mission":null,"orbit_class":"UNKNOWN","rcs_meters":null,"size_class":null,"mass_kg":null,"dimensions":null,"purposes":["comms"],"wikipedia_slug":null,"has_3d_model":false,"image_url":null,"decayed_at":null,"tle_current":{"epoch":"2026-05-24T21:52:37.767072Z","epoch_age_seconds":76062,"freshness":"FRESH","line1":"1 62504U 25003T   26144.91154823  .00005989  00000+0  22686-3 0  9994","line2":"2 62504  42.9995 218.0794 0001109 282.2592  77.8136 15.27599398 78217","mean_motion":15.27599398,"eccentricity":0.0001109,"inclination_deg":42.9995,"raan_deg":218.0794,"arg_perigee_deg":282.2592,"mean_anomaly_deg":77.8136,"bstar":0.00022686,"rev_number":7821,"period_min":94.265551680978,"perigee_km":482.23011296737,"apogee_km":483.75191116045,"semimajor_km":6861.1280120639,"source":"CELESTRAK","updated_at":"2026-05-25T13:38:19.699979Z"}}}